EW9766 Weather Reports


time (UTC)temp
C
wind
direction
speed
KPH
gust
KPH
rain 1hr
cm
rain 24hr
cm
rain mn
cm
humidity
%
barometer
mb
20260906013030 12 157 0.0 1.6 0.00 0.33 0.28 84 1018.4
20260906011643 13 188 0.0 4.8 0.00 0.33 0.28 84 1018.6
20260906010034 13 202 0.0 1.6 0.00 0.33 0.28 84 1018.8
20260906004529 13 202 0.0 1.6 0.00 0.33 0.28 84 1018.8
20260906003106 14 238 3.2 8.0 0.00 0.33 0.28 84 1018.8
20260906001531 14 217 4.8 11.3 0.18 0.33 0.28 85 1018.8
20260906000036 13 171 1.6 6.4 0.28 0.33 0.28 86 1018.8
20260905231535 15 270 0.0 4.8 0.10 0.15 0.00 79 1019.0
20260905224535 16 276 4.8 11.3 0.00 0.05 0.00 78 1018.7
20260905221606 15 200 3.2 8.0 0.00 0.05 0.00 79 1018.9
20260905220032 15 241 3.2 8.0 0.00 0.05 0.00 79 1018.7
20260905213033 15 304 3.2 11.3 0.00 0.05 0.00 80 1018.7
20260905211534 15 279 1.6 6.4 0.00 0.05 0.00 81 1018.9
20260905204534 15 315 1.6 8.0 0.00 0.05 0.00 81 1019.1
20260905203143 15 330 3.2 9.7 0.00 0.05 0.00 82 1019.1
20260905201533 13 349 1.6 6.4 0.00 0.05 0.00 83 1019.1
20260905194608 13 260 1.6 8.0 0.00 0.05 0.00 85 1019.3
20260905193030 13 316 3.2 8.0 0.00 0.05 0.00 85 1019.4
20260905191533 13 300 1.6 6.4 0.00 0.05 0.00 85 1019.4
20260905190035 12 278 0.0 6.4 0.00 0.05 0.00 85 1019.5
20260905184531 13 263 1.6 6.4 0.00 0.05 0.00 85 1019.6
20260905183031 13 275 3.2 8.0 0.00 0.05 0.00 85 1019.6
20260905181532 13 310 3.2 8.0 0.00 0.05 0.00 85 1019.7
20260905180037 13 320 4.8 11.3 0.00 0.05 0.00 86 1019.7
20260905173031 12 301 3.2 8.0 0.00 0.05 0.00 89 1019.7
20260905171535 12 277 0.0 6.4 0.00 0.05 0.00 89 1019.6
20260905170035 11 247 0.0 3.2 0.00 0.05 0.00 90 1019.6
20260905164536 11 206 0.0 0.0 0.00 0.05 0.00 91 1019.6
20260905163035 11 202 0.0 0.0 0.00 0.05 0.00 92 1019.5
20260905161528 11 201 0.0 0.0 0.00 0.05 0.00 92 1019.5
20260905160030 10 180 0.0 0.0 0.00 0.08 0.00 92 1019.4
20260905154651 10 180 0.0 0.0 0.00 0.08 0.00 93 1019.4
20260905153032 9 180 0.0 3.2 0.00 0.08 0.00 93 1019.3
20260905151536 9 178 4.8 9.7 0.00 0.08 0.00 93 1019.2
20260905150036 8 160 4.8 12.9 0.00 0.08 0.00 94 1019.2
20260905144534 8 147 6.4 12.9 0.00 0.08 0.00 94 1019.2
20260905143031 8 152 9.7 16.1 0.00 0.08 0.00 94 1019.1
20260905141532 7 146 9.7 17.7 0.00 0.08 0.00 94 1019.1
20260905140105 7 168 6.4 14.5 0.00 0.08 0.00 94 1018.9
20260905134531 7 152 6.4 11.3 0.00 0.08 0.00 94 1018.8
20260905133033 7 153 6.4 11.3 0.00 0.08 0.00 94 1018.7
20260905131530 7 152 6.4 11.3 0.00 0.08 0.00 94 1018.7
20260905130036 7 146 6.4 9.7 0.00 0.08 0.00 94 1018.6
20260905123033 7 155 3.2 6.4 0.00 0.08 0.00 94 1018.7
20260905121608 7 144 4.8 9.7 0.00 0.08 0.00 94 1018.7
20260905114536 7 162 4.8 9.7 0.00 0.10 0.00 93 1018.5
20260905113034 8 168 4.8 8.0 0.00 0.10 0.00 93 1018.4
20260905111533 8 135 4.8 8.0 0.00 0.10 0.00 93 1018.4
20260905110036 8 158 0.0 6.4 0.00 0.10 0.00 93 1018.5
20260905104530 8 172 1.6 4.8 0.00 0.10 0.00 93 1018.5
20260905103032 8 144 1.6 4.8 0.00 0.10 0.00 93 1018.4
20260905101608 8 172 4.8 8.0 0.00 0.10 0.00 93 1018.4
20260905100036 8 167 4.8 9.7 0.00 0.10 0.00 93 1018.5
20260905094543 8 154 6.4 11.3 0.00 0.10 0.00 93 1018.4
20260905091536 8 176 6.4 11.3 0.00 0.10 0.00 93 1018.4
20260905090032 8 164 6.4 12.9 0.00 0.10 0.00 93 1018.4
20260905081531 8 141 6.4 14.5 0.00 0.10 0.00 93 1018.3
20260905080035 8 142 4.8 6.4 0.00 0.10 0.00 93 1018.3
20260905074531 8 142 6.4 9.7 0.00 0.10 0.00 93 1018.1
20260905071536 8 156 4.8 9.7 0.00 0.10 0.00 92 1017.9
20260905070030 8 160 4.8 11.3 0.03 0.10 0.00 92 1017.8
20260905064535 9 160 3.2 8.0 0.05 0.10 0.10 92 1017.7
20260905063035 10 161 4.8 8.0 0.05 0.10 0.10 92 1017.6
20260905061536 10 161 4.8 9.7 0.05 0.10 0.08 92 1017.7
20260905060032 10 157 1.6 6.4 0.03 0.08 0.05 92 1017.8
20260905054535 10 171 3.2 6.4 0.00 0.05 0.05 91 1017.9
20260905053030 10 171 4.8 9.7 0.00 0.05 0.05 91 1017.9
20260905051532 10 164 3.2 8.0 0.00 0.05 0.05 91 1017.8
20260905044531 10 173 4.8 6.4 0.00 0.05 0.05 90 1017.7
20260905043036 10 136 4.8 6.4 0.00 0.05 0.05 90 1017.5
20260905041535 10 175 3.2 6.4 0.00 0.05 0.05 89 1017.5
20260905040031 10 177 3.2 6.4 0.00 0.05 0.05 89 1017.3
20260905034537 10 162 3.2 4.8 0.00 0.05 0.05 88 1017.2
20260905031533 10 180 4.8 6.4 0.00 0.05 0.05 86 1017.0
20260905030032 11 208 3.2 6.4 0.00 0.05 0.05 85 1017.0
20260905024536 11 312 0.0 1.6 0.00 0.05 0.05 83 1017.0
20260905023032 11 336 1.6 4.8 0.00 0.05 0.05 82 1017.1
20260905021537 12 337 0.0 1.6 0.00 0.05 0.05 79 1016.9
20260905020036 13 337 1.6 3.2 0.00 0.05 0.05 78 1016.7